Location: St. Louis
(38.6270°N, 90.1994°W)
Time: 00:52:20
(UTC-06:00)

Courier 1B Rocket - Pass Details

Date: 08 December 2021
Orbit: 920 x 1202 km, 28.2° (Epoch: 16 January)

Event Time Altitude Azimuth Distance (km) Brightness Sun altitude
Rises 19:18:49 0° 217° (SW) 3,907 8.7 -30.4°
Reaches altitude 10° 19:22:37 10° 199° (SSW) 2,894 7.7 -31.1°
Enters shadow 19:25:52 17° 172° (S) 2,355 6.9 -31.7°
Maximum altitude 19:27:06 18° 159° (SSE) 2,290 - -32.0°
Drops below altitude 10° 19:31:26 10° 119° (ESE) 2,764 - -32.8°
Sets 19:34:56 0° 101° (E) 3,665 - -33.5°
